"Pseudo-MPEC" for ZTF0KcP

Created 2021 Feb 28 15:07:11 UT using Find_Orb

Click here for an explanation of pseudo-MPECs

 
 Astrometry: 
     ZTF0KcP  C2021 02 19.55456920 27 23.29 +27 10 17.7    ~2K77 19.55rUNEOCPI41
     ZTF0KcP  C2021 02 19.55700020 27 23.41 +27 10 19.6    ~2K77 19.41rUNEOCPI41
     ZTF0KcP  C2021 02 19.55943120 27 23.52 +27 10 21.3    ~2K77 19.22rUNEOCPI41
     ZTF0KcP  C2021 02 19.56429120 27 23.76 +27 10 24.6    ~2K77 19.21rUNEOCPI41
     ZTF0KcP KC2021 02 23$4Astrometry%`Ep?CS2*NPredacted;h?*)E@(%RBMo5(\ZPC8dW33
     ZTF0KcP KC2021 02 23#xdclicks=aLOhereEfor!Z3td=?^yDjAK_0TuexplanationE^]W33

Station data:
(I41) Palomar Mountain--ZTF  (N33.357340 W116.859780)  US/California. 1.2-m
   f/2.44 Oschin Schmidt + CCD.
(W33) Transit Dreams Observatory, Campobello  (N35.077819 W82.165490)
   US/South Carolina.

Orbital elements:  ZTF0KcP
   Perihelion 2020 Oct 26.614751 +/- 4.707 TT = 14:45:14 (JD 2459149.114751)
Epoch 2021 Feb 23.0 TT = JDT 2459268.5   Earth MOID: 0.0607   Ve: 0.0319
M 149.76917589 +/- 5.1841536        (J2000 ecliptic)          AutoNEOCP
n   1.25450319 +/- 0.0145737        Peri.  328.07474 +/- 12.782566
a   0.85144160 +/- 0.0065942        Node    31.57356 +/- 8.9904742
e   0.1109502 +/- 0.0104544         Incl.    4.18638 +/- 0.5097637
P   0.79/286.96d           H 19.4   G  0.15   U  9.9  
q 0.75697397 +/- 0.0138915    Q 0.94590923 +/- 0.00564023
From 6 observations 2021 Feb. 19-23; mean residual 0".17
Residuals in arcseconds: 
210219 I41  .31-  .17-    210219 I41  .03-  .08+    210223 W33  .04-  .05-    
210219 I41  .11-  .05+    210219 I41  .46+  .04+    210223 W33  .04+  .05+    

Ephemerides (geocentric):
Date (UTC) HH   RA              Dec         delta   r     elong  mag " sig PA
---- -- -- --  -------------   -----------  ------ ------ -----  --- ---- ---
2021 02 28 15  20 39 52.767   +27 24 13.56  .07660 .93969  46.6 19?? 49.2  77
2021 02 28 16  20 39 57.586   +27 24 01.59  .07656 .93972  46.6 19?? 50.0  77
2021 02 28 17  20 40 02.418   +27 23 49.48  .07653 .93975  46.6 19?? 50.8  77
2021 02 28 18  20 40 07.264   +27 23 37.21  .07650 .93978  46.6 19?? 51.6  77
2021 02 28 19  20 40 12.124   +27 23 24.81  .07647 .93980  46.6 19?? 52.4  77
2021 02 28 20  20 40 16.997   +27 23 12.25  .07644 .93983  46.6 19?? 53.2  77
2021 02 28 21  20 40 21.884   +27 22 59.55  .07641 .93986  46.6 19?? 54.0  78
2021 02 28 22  20 40 26.785   +27 22 46.70  .07638 .93989  46.6 19?? 54.8  78
2021 02 28 23  20 40 31.699   +27 22 33.70  .07634 .93991  46.6 19?? 55.7  78
2021 03 01 00  20 40 36.627   +27 22 20.56  .07631 .93994  46.6 19?? 56.5  78
2021 03 01 01  20 40 41.568   +27 22 07.27  .07628 .93997  46.6 19?? 57.3  78
2021 03 01 02  20 40 46.524   +27 21 53.83  .07625 .93999  46.6 19?? 58.2  78
2021 03 01 03  20 40 51.493   +27 21 40.24  .07622 .94002  46.6 19?? 59.0  78
2021 03 01 04  20 40 56.475   +27 21 26.51  .07619 .94005  46.6 19?? 59.9  79
2021 03 01 05  20 41 01.472   +27 21 12.63  .07616 .94008  46.6 19?? 60.8  79
2021 03 01 06  20 41 06.482   +27 20 58.61  .07613 .94010  46.6 19?? 61.7  79
2021 03 01 07  20 41 11.506   +27 20 44.43  .07610 .94013  46.6 19?? 62.5  79
2021 03 01 08  20 41 16.544   +27 20 30.11  .07606 .94016  46.6 19?? 63.4  79
2021 03 01 09  20 41 21.596   +27 20 15.64  .07603 .94018  46.6 19?? 64.3  79
2021 03 01 10  20 41 26.661   +27 20 01.03  .07600 .94021  46.6 19?? 65.3  79
2021 03 01 11  20 41 31.741   +27 19 46.26  .07597 .94024  46.6 19?? 66.2  80
2021 03 01 12  20 41 36.834   +27 19 31.35  .07594 .94026  46.5 19?? 67.1  80
2021 03 01 13  20 41 41.941   +27 19 16.30  .07591 .94029  46.5 19?? 68.0  80
2021 03 01 14  20 41 47.062   +27 19 01.09  .07588 .94032  46.5 19?? 69.0  80
2021 03 01 15  20 41 52.196   +27 18 45.74  .07585 .94034  46.5 19?? 69.9  80
2021 03 01 16  20 41 57.345   +27 18 30.24  .07582 .94037  46.5 19?? 70.9  80
2021 03 01 17  20 42 02.508   +27 18 14.59  .07579 .94040  46.5 19?? 71.9  80
2021 03 01 18  20 42 07.684   +27 17 58.80  .07575 .94042  46.5 19?? 72.8  80
2021 03 01 19  20 42 12.875   +27 17 42.85  .07572 .94045  46.5 19?? 73.8  81
2021 03 01 20  20 42 18.079   +27 17 26.76  .07569 .94047  46.5 19?? 74.8  81
2021 03 01 21  20 42 23.297   +27 17 10.53  .07566 .94050  46.5 19?? 75.8  81
2021 03 01 22  20 42 28.530   +27 16 54.14  .07563 .94053  46.5 19?? 76.8  81
2021 03 01 23  20 42 33.776   +27 16 37.61  .07560 .94055  46.5 19?? 77.8  81
2021 03 02 00  20 42 39.036   +27 16 20.93  .07557 .94058  46.5 19?? 78.8  81
2021 03 02 01  20 42 44.311   +27 16 04.10  .07554 .94060  46.5 19?? 79.9  81
2021 03 02 02  20 42 49.599   +27 15 47.12  .07551 .94063  46.5 19?? 80.9  81
2021 03 02 03  20 42 54.901   +27 15 30.00  .07548 .94066  46.5 19?? 82.0  81
2021 03 02 04  20 43 00.218   +27 15 12.72  .07545 .94068  46.5 19?? 83.0  82
2021 03 02 05  20 43 05.548   +27 14 55.30  .07542 .94071  46.5 19?? 84.1  82
2021 03 02 06  20 43 10.893   +27 14 37.74  .07539 .94073  46.5 19?? 85.1  82
2021 03 02 07  20 43 16.251   +27 14 20.02  .07536 .94076  46.5 19?? 86.2  82
2021 03 02 08  20 43 21.624   +27 14 02.16  .07533 .94078  46.5 19?? 87.3  82
2021 03 02 09  20 43 27.011   +27 13 44.15  .07530 .94081  46.5 19?? 88.4  82
2021 03 02 10  20 43 32.412   +27 13 25.99  .07526 .94083  46.5 19?? 89.5  82
2021 03 02 11  20 43 37.827   +27 13 07.68  .07523 .94086  46.4 19?? 90.6  82
2021 03 02 12  20 43 43.256   +27 12 49.22  .07520 .94088  46.4 19?? 91.8  83
2021 03 02 13  20 43 48.699   +27 12 30.62  .07517 .94091  46.4 19?? 92.9  83
2021 03 02 14  20 43 54.157   +27 12 11.87  .07514 .94093  46.4 19?? 94.0  83